SouthEast Lincoln: Weather Underground Data


Davis Vantage Pro Historical Data
 
Daily Summary for November 20, 2017 Units:  English    Metric   Both
« Previous Day
Next Day »
Daily Weekly Monthly Yearly Custom
  Current: High: Low: Average:
Temperature: 40.0 °F 43.2 °F 40.0 °F 41.6 °F
Dew Point: 25.6 °F 27.2 °F 25.3 °F 26.5 °F
Humidity: 56% 58% 52% 55%
Wind Speed: 4.0mph 12.0mph 1.0mph 4.5mph
Wind Gust: 7.0mph 13.0mph - -
Wind:SSW - - SW
Pressure: 29.80 in 29.93 in 29.80 in -
Precipitation: 0.00 in      
Historical Graphs
 
 
Tabular Data for November 20, 2017
Time Temperature Dew Point Pressure Wind Wind Speed Wind Gust Humidity Rainfall Rate (Hourly) solar
00:03 43.2 °F 26.8 °F 29.93 in SSW 2.0 mph 2.0 mph 52% 0.00 in 0.00 W/m2
00:08 43.2 °F 26.8 °F 29.93 in SSW 3.0 mph 5.0 mph 52% 0.00 in 0.00 W/m2
00:18 43.1 °F 26.7 °F 29.93 in SW 3.0 mph 4.0 mph 52% 0.00 in 0.00 W/m2
00:23 43.1 °F 27.1 °F 29.92 in SSW 3.0 mph 3.0 mph 53% 0.00 in 0.00 W/m2
00:28 42.9 °F 27.0 °F 29.92 in SW 3.0 mph 3.0 mph 53% 0.00 in 0.00 W/m2
00:33 42.9 °F 27.0 °F 29.92 in South 6.0 mph 7.0 mph 53% 0.00 in 0.00 W/m2
00:38 42.8 °F 26.9 °F 29.92 in South 2.0 mph 6.0 mph 53% 0.00 in 0.00 W/m2
00:43 42.8 °F 26.9 °F 29.92 in SW 2.0 mph 5.0 mph 53% 0.00 in 0.00 W/m2
00:48 42.8 °F 26.9 °F 29.92 in South 5.0 mph 5.0 mph 53% 0.00 in 0.00 W/m2
00:53 42.7 °F 26.8 °F 29.91 in WSW 3.0 mph 4.0 mph 53% 0.00 in 0.00 W/m2
00:58 42.7 °F 26.8 °F 29.91 in WSW 6.0 mph 6.0 mph 53% 0.00 in 0.00 W/m2
01:08 42.7 °F 26.8 °F 29.91 in SW 2.0 mph 6.0 mph 53% 0.00 in 0.00 W/m2
01:19 42.7 °F 26.8 °F 29.90 in WSW 8.0 mph 8.0 mph 53% 0.00 in 0.00 W/m2
01:24 42.9 °F 27.0 °F 29.90 in SSW 3.0 mph 7.0 mph 53% 0.00 in 0.00 W/m2
01:29 42.8 °F 26.9 °F 29.90 in SW 2.0 mph 5.0 mph 53% 0.00 in 0.00 W/m2
01:34 42.6 °F 27.1 °F 29.89 in ESE 5.0 mph 5.0 mph 54% 0.00 in 0.00 W/m2
01:39 42.5 °F 27.0 °F 29.89 in South 9.0 mph 12.0 mph 54% 0.00 in 0.00 W/m2
01:44 42.5 °F 27.0 °F 29.89 in SSW 5.0 mph 8.0 mph 54% 0.00 in 0.00 W/m2
01:49 42.5 °F 27.0 °F 29.89 in SSW 3.0 mph 5.0 mph 54% 0.00 in 0.00 W/m2
01:54 42.4 °F 27.0 °F 29.89 in SW 7.0 mph 8.0 mph 54% 0.00 in 0.00 W/m2
02:04 42.2 °F 27.2 °F 29.89 in SW 6.0 mph 6.0 mph 55% 0.00 in 0.00 W/m2
02:14 42.0 °F 27.0 °F 29.89 in South 3.0 mph 4.0 mph 55% 0.00 in 0.00 W/m2
02:19 41.9 °F 26.9 °F 29.89 in SW 3.0 mph 6.0 mph 55% 0.00 in 0.00 W/m2
02:24 41.8 °F 26.8 °F 29.88 in SSW 3.0 mph 8.0 mph 55% 0.00 in 0.00 W/m2
02:34 41.8 °F 26.8 °F 29.88 in SW 2.0 mph 8.0 mph 55% 0.00 in 0.00 W/m2
02:39 41.7 °F 27.2 °F 29.88 in WSW 3.0 mph 6.0 mph 56% 0.00 in 0.00 W/m2
02:44 41.6 °F 27.1 °F 29.88 in SW 3.0 mph 6.0 mph 56% 0.00 in 0.00 W/m2
02:49 41.6 °F 27.1 °F 29.88 in SSE 7.0 mph 10.0 mph 56% 0.00 in 0.00 W/m2
02:54 41.4 °F 26.9 °F 29.88 in South 5.0 mph 6.0 mph 56% 0.00 in 0.00 W/m2
02:59 41.4 °F 26.9 °F 29.88 in SW 2.0 mph 7.0 mph 56% 0.00 in 0.00 W/m2
03:04 41.4 °F 26.9 °F 29.87 in SSW 2.0 mph 7.0 mph 56% 0.00 in 0.00 W/m2
03:09 41.4 °F 26.9 °F 29.87 in SW 6.0 mph 7.0 mph 56% 0.00 in 0.00 W/m2
03:14 41.5 °F 27.0 °F 29.87 in WSW 6.0 mph 9.0 mph 56% 0.00 in 0.00 W/m2
03:19 41.5 °F 27.0 °F 29.87 in South 6.0 mph 10.0 mph 56% 0.00 in 0.00 W/m2
03:24 41.4 °F 26.9 °F 29.87 in WSW 4.0 mph 8.0 mph 56% 0.00 in 0.00 W/m2
03:29 41.3 °F 26.8 °F 29.86 in South 6.0 mph 6.0 mph 56% 0.00 in 0.00 W/m2
03:44 41.0 °F 26.5 °F 29.86 in WSW 6.0 mph 6.0 mph 56% 0.00 in 0.00 W/m2
03:49 40.9 °F 26.4 °F 29.86 in WSW 4.0 mph 10.0 mph 56% 0.00 in 0.00 W/m2
03:54 40.9 °F 26.9 °F 29.85 in SSW 3.0 mph 6.0 mph 57% 0.00 in 0.00 W/m2
03:59 40.8 °F 26.8 °F 29.85 in SW 2.0 mph 4.0 mph 57% 0.00 in 0.00 W/m2
04:09 40.6 °F 27.0 °F 29.85 in WSW 5.0 mph 6.0 mph 58% 0.00 in 0.00 W/m2
04:19 40.7 °F 26.2 °F 29.85 in SW 5.0 mph 7.0 mph 56% 0.00 in 0.00 W/m2
04:29 40.8 °F 26.3 °F 29.85 in SW 5.0 mph 9.0 mph 56% 0.00 in 0.00 W/m2
04:39 40.9 °F 26.0 °F 29.85 in South 6.0 mph 7.0 mph 55% 0.00 in 0.00 W/m2
04:44 40.9 °F 26.4 °F 29.85 in SW 5.0 mph 8.0 mph 56% 0.00 in 0.00 W/m2
04:49 40.9 °F 26.0 °F 29.85 in SSW 2.0 mph 6.0 mph 55% 0.00 in 0.00 W/m2
04:54 40.9 °F 26.0 °F 29.85 in West 3.0 mph 6.0 mph 55% 0.00 in 0.00 W/m2
05:04 41.0 °F 26.1 °F 29.85 in SSW 2.0 mph 6.0 mph 55% 0.00 in 0.00 W/m2
05:09 41.0 °F 26.1 °F 29.84 in SW 4.0 mph 9.0 mph 55% 0.00 in 0.00 W/m2
05:14 41.0 °F 26.1 °F 29.83 in SW 8.0 mph 8.0 mph 55% 0.00 in 0.00 W/m2
05:29 41.0 °F 26.1 °F 29.83 in SSE 7.0 mph 13.0 mph 55% 0.00 in 0.00 W/m2
05:34 41.1 °F 26.2 °F 29.83 in SW 10.0 mph 10.0 mph 55% 0.00 in 0.00 W/m2
05:39 41.2 °F 25.8 °F 29.83 in WSW 3.0 mph 6.0 mph 54% 0.00 in 0.00 W/m2
05:44 41.3 °F 25.9 °F 29.83 in West 3.0 mph 12.0 mph 54% 0.00 in 0.00 W/m2
05:49 41.3 °F 25.9 °F 29.83 in SSW 3.0 mph 4.0 mph 54% 0.00 in 0.00 W/m2
05:59 41.0 °F 25.6 °F 29.83 in SW 3.0 mph 4.0 mph 54% 0.00 in 0.00 W/m2
06:04 40.9 °F 25.5 °F 29.83 in SW 6.0 mph 6.0 mph 54% 0.00 in 0.00 W/m2
06:09 40.9 °F 25.5 °F 29.83 in SSW 4.0 mph 7.0 mph 54% 0.00 in 0.00 W/m2
06:14 40.8 °F 25.9 °F 29.82 in SW 3.0 mph 6.0 mph 55% 0.00 in 0.00 W/m2
06:24 40.5 °F 26.0 °F 29.82 in South 1.0 mph 4.0 mph 56% 0.00 in 0.00 W/m2
06:29 40.3 °F 25.9 °F 29.82 in WSW 6.0 mph 6.0 mph 56% 0.00 in 0.00 W/m2
06:49 40.4 °F 26.0 °F 29.80 in WSW 8.0 mph 11.0 mph 56% 0.00 in 0.00 W/m2
06:54 40.4 °F 26.0 °F 29.80 in SSW 8.0 mph 8.0 mph 56% 0.00 in 0.00 W/m2
07:04 40.4 °F 25.5 °F 29.81 in SW 12.0 mph 12.0 mph 55% 0.00 in 0.00 W/m2
07:09 40.4 °F 25.5 °F 29.81 in SW 3.0 mph 7.0 mph 55% 0.00 in 0.00 W/m2
07:14 40.3 °F 25.4 °F 29.81 in SSW 5.0 mph 6.0 mph 55% 0.00 in 0.00 W/m2
07:19 40.2 °F 25.3 °F 29.81 in SW 5.0 mph 10.0 mph 55% 0.00 in 0.00 W/m2
07:24 40.0 °F 25.6 °F 29.80 in SSW 4.0 mph 7.0 mph 56% 0.00 in 5.00 W/m2
SouthEast Lincoln Weather
Compliments of Weather Underground - 2 mb